• In Deutschland
  • Länderverzeichnis
  • Für 7 Tage
  • Wassertemperatur
  • Satellitenkarten
  • Wetterkarte
  • Widgets
  • user-avatar
    Anmelden

    Stündliche Wetter Kyrdshali

    Heute, 22 Juli, Sonntag

    Zeit Temperatur Niederschläge Wind Luftdruck Luftfeuchtigkeit
    00:00 +23°C° 0 mm 1 m/S 725 mmHg 59%
    01:00 +22°C° 0 mm 1 m/S 725 mmHg 59%
    02:00 +22°C° 0 mm 1 m/S 725 mmHg 58%
    03:00 +22°C° 0 mm 1 m/S 724 mmHg 57%
    04:00 +21°C° 0 mm 1 m/S 724 mmHg 57%
    05:00 +21°C° 0 mm 1 m/S 724 mmHg 56%
    06:00 +23°C° 0 mm 1 m/S 725 mmHg 52%
    07:00 +26°C° 0 mm 1 m/S 725 mmHg 47%
    08:00 +28°C° 0 mm 1 m/S 725 mmHg 43%
    09:00 +29°C° 0 mm 1 m/S 725 mmHg 40%
    10:00 +31°C° 0 mm 2 m/S 725 mmHg 38%
    11:00 +32°C° 0 mm 2 m/S 725 mmHg 35%
    12:00 +34°C° 0 mm 2 m/S 724 mmHg 35%
    13:00 +35°C° 0 mm 3 m/S 724 mmHg 34%
    14:00 +35°C° 0 mm 4 m/S 724 mmHg 34%
    15:00 +35°C° 0 mm 4 m/S 723 mmHg 36%
    16:00 +34°C° 0 mm 4 m/S 723 mmHg 39%
    17:00 +33°C° 0 mm 4 m/S 722 mmHg 42%
    18:00 +30°C° 0 mm 3 m/S 722 mmHg 48%
    19:00 +28°C° 0 mm 2 m/S 721 mmHg 54%
    20:00 +26°C° 0 mm 2 m/S 721 mmHg 60%
    21:00 +26°C° 0,1 mm 2 m/S 721 mmHg 62%
    22:00 +25°C° 0,1 mm 2 m/S 721 mmHg 65%
    23:00 +24°C° 0,1 mm 2 m/S 721 mmHg 67%

    Morgen, 23 Juli, Montag

    Zeit Temperatur Niederschläge Wind Luftdruck Luftfeuchtigkeit
    00:00 +23°C° 0 mm 2 m/S 721 mmHg 67%
    01:00 +23°C° 0 mm 2 m/S 721 mmHg 67%
    02:00 +21°C° 0 mm 2 m/S 721 mmHg 67%
    03:00 +21°C° 0 mm 2 m/S 721 mmHg 67%
    04:00 +21°C° 0 mm 2 m/S 720 mmHg 67%
    05:00 +20°C° 0 mm 2 m/S 720 mmHg 67%
    06:00 +23°C° 0 mm 2 m/S 720 mmHg 62%
    07:00 +25°C° 0 mm 1 m/S 720 mmHg 57%
    08:00 +27°C° 0 mm 1 m/S 721 mmHg 52%
    09:00 +29°C° 0 mm 2 m/S 721 mmHg 47%
    10:00 +30°C° 0 mm 2 m/S 720 mmHg 43%
    11:00 +32°C° 0 mm 2 m/S 720 mmHg 38%
    12:00 +34°C° 0,1 mm 2 m/S 720 mmHg 37%
    13:00 +34°C° 0,1 mm 2 m/S 720 mmHg 36%
    14:00 +35°C° 0,1 mm 2 m/S 719 mmHg 35%
    15:00 +32°C° 0,5 mm 2 m/S 719 mmHg 40%
    16:00 +31°C° 0,5 mm 2 m/S 718 mmHg 44%
    17:00 +30°C° 0,5 mm 2 m/S 718 mmHg 49%
    18:00 +28°C° 2,7 mm 2 m/S 718 mmHg 59%
    19:00 +25°C° 2,7 mm 2 m/S 718 mmHg 70%
    20:00 +23°C° 2,7 mm 2 m/S 718 mmHg 81%
    21:00 +21°C° 1,7 mm 2 m/S 718 mmHg 83%
    22:00 +21°C° 1,7 mm 2 m/S 718 mmHg 86%
    23:00 +21°C° 1,7 mm 2 m/S 718 mmHg 89%

    übermorgen, 24 Juli, Dienstag

    Zeit Temperatur Niederschläge Wind Luftdruck Luftfeuchtigkeit
    00:00 +20°C° 1,2 mm 2 m/S 718 mmHg 89%
    01:00 +20°C° 1,2 mm 2 m/S 718 mmHg 88%
    02:00 +20°C° 1,2 mm 3 m/S 717 mmHg 88%
    03:00 +20°C° 0,5 mm 3 m/S 717 mmHg 88%
    04:00 +19°C° 0,5 mm 3 m/S 717 mmHg 88%
    05:00 +19°C° 0,5 mm 3 m/S 717 mmHg 88%
    06:00 +19°C° 0,8 mm 3 m/S 717 mmHg 86%
    07:00 +20°C° 0,8 mm 3 m/S 718 mmHg 84%
    08:00 +20°C° 0,8 mm 3 m/S 718 mmHg 82%
    09:00 +21°C° 0,2 mm 3 m/S 719 mmHg 76%
    10:00 +23°C° 0,2 mm 4 m/S 719 mmHg 70%
    11:00 +25°C° 0,2 mm 4 m/S 719 mmHg 64%
    12:00 +26°C° 0,5 mm 3 m/S 719 mmHg 61%
    13:00 +27°C° 0,5 mm 3 m/S 719 mmHg 59%
    14:00 +28°C° 0,5 mm 3 m/S 719 mmHg 56%
    15:00 +28°C° 0,7 mm 3 m/S 719 mmHg 57%
    16:00 +27°C° 0,7 mm 2 m/S 719 mmHg 58%
    17:00 +27°C° 0,7 mm 2 m/S 719 mmHg 59%
    18:00 +26°C° 0,5 mm 2 m/S 719 mmHg 64%
    19:00 +24°C° 0,5 mm 2 m/S 719 mmHg 70%
    20:00 +23°C° 0,5 mm 2 m/S 719 mmHg 75%
    21:00 +21°C° 0,1 mm 2 m/S 719 mmHg 77%
    22:00 +21°C° 0,1 mm 2 m/S 720 mmHg 80%
    23:00 +20°C° 0,1 mm 2 m/S 720 mmHg 82%

    25 Juli, Mittwoch

    Zeit Temperatur Niederschläge Wind Luftdruck Luftfeuchtigkeit
    00:00 +20°C° 0 mm 2 m/S 720 mmHg 82%
    01:00 +20°C° 0 mm 2 m/S 720 mmHg 83%
    02:00 +19°C° 0 mm 2 m/S 720 mmHg 83%
    03:00 +19°C° 0 mm 2 m/S 720 mmHg 83%
    04:00 +19°C° 0 mm 2 m/S 720 mmHg 83%
    05:00 +19°C° 0 mm 2 m/S 720 mmHg 82%
    06:00 +20°C° 0 mm 2 m/S 720 mmHg 78%
    07:00 +23°C° 0 mm 2 m/S 721 mmHg 73%
    08:00 +24°C° 0 mm 2 m/S 721 mmHg 69%
    09:00 +25°C° 0,1 mm 2 m/S 721 mmHg 64%
    10:00 +27°C° 0,1 mm 3 m/S 722 mmHg 60%
    11:00 +28°C° 0,1 mm 3 m/S 722 mmHg 56%
    12:00 +28°C° 0,5 mm 3 m/S 722 mmHg 55%
    13:00 +29°C° 0,5 mm 2 m/S 721 mmHg 55%
    14:00 +29°C° 0,5 mm 2 m/S 721 mmHg 54%
    15:00 +29°C° 0,6 mm 2 m/S 721 mmHg 56%
    16:00 +28°C° 0,6 mm 2 m/S 721 mmHg 57%
    17:00 +28°C° 0,6 mm 2 m/S 721 mmHg 59%
    18:00 +27°C° 0,2 mm 2 m/S 721 mmHg 63%
    19:00 +25°C° 0,2 mm 1 m/S 721 mmHg 68%
    20:00 +24°C° 0,2 mm 1 m/S 721 mmHg 73%
    21:00 +23°C° 0,3 mm 1 m/S 721 mmHg 76%
    22:00 +23°C° 0,3 mm 1 m/S 722 mmHg 78%
    23:00 +22°C° 0,3 mm 1 m/S 722 mmHg 81%

    26 Juli, Donnerstag

    Zeit Temperatur Niederschläge Wind Luftdruck Luftfeuchtigkeit
    00:00 +21°C° 0,2 mm 2 m/S 722 mmHg 82%
    01:00 +21°C° 0,2 mm 2 m/S 721 mmHg 83%
    02:00 +20°C° 0,2 mm 2 m/S 721 mmHg 84%
    03:00 +20°C° 0 mm 2 m/S 721 mmHg 84%
    04:00 +20°C° 0 mm 2 m/S 722 mmHg 85%
    05:00 +19°C° 0 mm 2 m/S 722 mmHg 85%
    06:00 +21°C° 0 mm 2 m/S 722 mmHg 79%
    07:00 +24°C° 0 mm 2 m/S 722 mmHg 74%
    08:00 +25°C° 0 mm 2 m/S 723 mmHg 68%
    09:00 +26°C° 0,2 mm 3 m/S 723 mmHg 63%
    10:00 +28°C° 0,2 mm 3 m/S 723 mmHg 59%
    11:00 +29°C° 0,2 mm 3 m/S 723 mmHg 54%
    12:00 +29°C° 0,1 mm 3 m/S 723 mmHg 52%
    13:00 +30°C° 0,1 mm 3 m/S 723 mmHg 50%
    14:00 +31°C° 0,1 mm 3 m/S 722 mmHg 48%
    15:00 +30°C° 0,4 mm 2 m/S 722 mmHg 51%
    16:00 +30°C° 0,4 mm 2 m/S 722 mmHg 53%
    17:00 +29°C° 0,4 mm 2 m/S 722 mmHg 55%
    18:00 +28°C° 0,1 mm 2 m/S 722 mmHg 59%
    19:00 +27°C° 0,1 mm 2 m/S 722 mmHg 64%
    20:00 +25°C° 0,1 mm 1 m/S 722 mmHg 68%
    21:00 +24°C° 0,1 mm 1 m/S 723 mmHg 71%
    22:00 +24°C° 0,1 mm 1 m/S 723 mmHg 74%
    23:00 +23°C° 0,1 mm 1 m/S 723 mmHg 77%

    27 Juli, Freitag

    Zeit Temperatur Niederschläge Wind Luftdruck Luftfeuchtigkeit
    00:00 +23°C° 0,1 mm 2 m/S 723 mmHg 79%
    01:00 +21°C° 0,1 mm 2 m/S 723 mmHg 81%
    02:00 +21°C° 0,1 mm 2 m/S 723 mmHg 82%
    03:00 +21°C° 0,1 mm 2 m/S 723 mmHg 83%
    04:00 +20°C° 0,1 mm 2 m/S 723 mmHg 84%
    05:00 +20°C° 0,1 mm 2 m/S 723 mmHg 85%
    06:00 +23°C° 0 mm 2 m/S 723 mmHg 79%
    07:00 +24°C° 0 mm 2 m/S 724 mmHg 73%
    08:00 +26°C° 0 mm 2 m/S 724 mmHg 67%
    09:00 +27°C° 0 mm 2 m/S 724 mmHg 60%
    10:00 +29°C° 0 mm 2 m/S 724 mmHg 54%
    11:00 +30°C° 0 mm 2 m/S 724 mmHg 48%
    12:00 +31°C° 0,1 mm 2 m/S 724 mmHg 46%
    13:00 +31°C° 0,1 mm 2 m/S 724 mmHg 44%
    14:00 +32°C° 0,1 mm 2 m/S 724 mmHg 42%
    15:00 +33°C° 0,1 mm 3 m/S 724 mmHg 42%
    16:00 +33°C° 0,1 mm 3 m/S 723 mmHg 43%
    17:00 +33°C° 0,1 mm 3 m/S 723 mmHg 44%
    18:00 +30°C° 0 mm 2 m/S 723 mmHg 49%
    19:00 +28°C° 0 mm 2 m/S 723 mmHg 54%
    20:00 +27°C° 0 mm 1 m/S 723 mmHg 59%
    21:00 +26°C° 0 mm 1 m/S 723 mmHg 61%
    22:00 +25°C° 0 mm 1 m/S 723 mmHg 63%
    23:00 +24°C° 0 mm 1 m/S 723 mmHg 66%
    Mehr zeigen